Сууре-Яани

Эстония     58°31′46″N   25°28′03″E
В апреле 2022 года жителям России запретили посещать сайт meteo.paraplan.net по решению Генеральной прокуратуры. Аудитория сайта уменьшилась в 10 раз. Владельцы сайта не видят смысла в поддержке погодного сервера в таких условиях. Сайт будет закрыт в октябре.
темп.,
°C
ветер,
м/с
пор.,
м/с
влажн.,
%
обл.,
%
осадки,
мм/ч
давл.,
гПа
погр.,
м
25 сентября, вс
вс2500:00+6с2395100 0.0 101444
03:00+6зсз2489100 0.0 101486
06:00+8сз279099 0.1 1013229
09:00+8ссз27879 0.1 1012233
12:00+12ссз3657100 0.0 10121176
15:00+13сз4651100 0.0 10101575
18:00+11с366199 0.0 1010466
21:00+6ссв1182100 0.0 100911
26 сентября, пн
пн2600:00+6ю118598 0.0 100910
03:00+5ю118775 0.0 100813
06:00+5ююв238582 0.0 100853
09:00+8юв257692 0.0 1007175
12:00+13юв34626 0.0 1007744
15:00+14ююв345862 0.2 10071225
18:00+12вюв366928 0.2 1007185
21:00+11вюв397498 0.2 1008281
27 сентября, вт
вт2700:00+9вюв378088 0.0 1008204
03:00+7вюв259511 0.0 1008112
06:00+6вюв27976 0.0 1008127
09:00+8в378593 0.0 1008203
12:00+11вюв3771100 0.0 1009425
15:00+15вюв345531 0.0 1008937
18:00+13в476569 0.0 1008643
21:00+9в411846 0.0 1009412
28 сентября, ср
ср2800:00+7в3109865 0.0 1008291
03:00+8всв4109297 0.1 1007365
06:00+7всв4119747 0.0 1006432
09:00+9в51086100 0.0 1005720
12:00+12в61367100 0.0 1004993
15:00+12в61470100 0.2 10021522
18:00+9в71592100 2.6 10011206
21:00+9в71594100 6.1 10011131
29 сентября, чт
чт2900:00+9в71494100 1.7 10011058
03:00+9вюв51196100 3.2 1001829
06:00+9вюв4998100 0.2 1002493
09:00+10юв369399 1.2 1003388
12:00+12ю477698 1.4 1004606
15:00+12ю4776100 2.5 10061414
18:00+10ююв388672 0.5 1007400
21:00+8юв311945 0.6 1008267